sat.trackr.live / text

‹ back to catalog

SITRO-AIS 19

NORAD 61759 · 2024-199AA

PAYLOAD ACTIVE UNKNOWN

§ Identity

Operator
Country
CIS
Launch date
2024-11-04
Launch site
VOSTO
Launch vehicle
Mass (kg)
RCS (m²)

External: N2YO · Heavens-Above · Gunter

§ Orbital elements

Epoch: 2026-05-25T04:36:28.329984Z

Period
96.14 min
Inclination
97.3259°
Eccentricity
0.0007013
Mean motion
14.97787846 rev/d
Perigee alt
568.9 km
Apogee alt
578.6 km
Semi-major
6,951.9 km
B*
1.7051e-4
RAAN
346.1873°
Arg perigee
134.2195°
Mean anomaly
225.9606°
Rev number
13,169

§ Raw data

SITRO-AIS 191 61759U 24199AA  26145.19199456  .00001949  00000+0  17051-3 0  99942 61759  97.3259 346.1873 0007013 134.2195 225.9606 14.97787846131694

JSON: /api/v1/satellites/61759 · /tle

For live sub-satellite position, see the globe view (requires WebGL).

§ Visibility from observer

Set your observer location to see the next 7 days of passes ≥ 10°. The values pass through the URL so the page stays shareable.

No JS? Fill the form by hand. The geolocation button needs JavaScript.

§ Radio — SatNOGS DB

ModeDescriptionDownlinkUplink
GMSK USP Mode U - GMSK2k4 - USP 401.135 MHz

1 transmitter · refreshed weekly from db.satnogs.org